NJAM2 CYHM-

Flight info

Callsign NJAM2
Flight time N/A
Altitude
Route VFR
Aircraft

Departure

Time 2026-04-26 16:45
Airport John C. Munro Hamilton International Airport (CYHM)

Arrival

Time N/A
Airport -
Time Latitude Longitude Altitude Speed Heading
2026-04-26 16:35 43.16418 -79.92292 774 ft 0 kts 113°
2026-04-26 16:37 43.16416 -79.92286 774 ft 1 kts 112°
2026-04-26 16:37 43.16416 -79.92280 774 ft 0 kts 62°
2026-04-26 16:38 43.16449 -79.92300 774 ft 13 kts 294°
2026-04-26 16:38 43.16479 -79.92421 774 ft 13 kts 282°
2026-04-26 16:38 43.16503 -79.92551 774 ft 15 kts 286°
2026-04-26 16:38 43.16542 -79.92713 773 ft 16 kts 288°
2026-04-26 16:39 43.16586 -79.92903 773 ft 18 kts 287°
2026-04-26 16:39 43.16618 -79.93047 771 ft 14 kts 286°
2026-04-26 16:39 43.16618 -79.93209 774 ft 15 kts 230°
2026-04-26 16:39 43.16588 -79.93321 774 ft 13 kts 307°
2026-04-26 16:40 43.16617 -79.93366 774 ft 0 kts 313°
2026-04-26 16:40 43.16621 -79.93371 774 ft 0 kts 313°
2026-04-26 16:42 43.16622 -79.93372 774 ft 4 kts 313°
2026-04-26 16:43 43.16707 -79.93399 775 ft 16 kts 50°
2026-04-26 16:43 43.16728 -79.93366 775 ft 0 kts 48°
2026-04-26 16:43 43.16753 -79.93351 774 ft 14 kts 40°
2026-04-26 16:43 43.16885 -79.93135 827 ft 103 kts 50°
2026-04-26 16:44 43.17557 -79.92081 1156 ft 179 kts 52°
2026-04-26 16:44 43.18443 -79.90693 1052 ft 207 kts 49°
2026-04-26 16:44 43.19447 -79.88995 871 ft 225 kts 67°
2026-04-26 16:44 43.20096 -79.87063 1171 ft 234 kts 65°
2026-04-26 16:45 43.20753 -79.85026 1355 ft 228 kts 64°
2026-04-26 16:45 43.21473 -79.83072 1550 ft 234 kts 65°
2026-04-26 16:45 43.21561 -79.80930 1527 ft 242 kts 110°
2026-04-26 16:45 43.20841 -79.78777 1322 ft 249 kts 117°
2026-04-26 16:46 43.20049 -79.76694 1120 ft 249 kts 119°
2026-04-26 16:46 43.19223 -79.74649 1321 ft 240 kts 120°
2026-04-26 16:46 43.18471 -79.72688 1846 ft 228 kts 120°
2026-04-26 16:46 43.17865 -79.71052 1292 ft 146 kts 109°
2026-04-26 16:47 43.18158 -79.70655 762 ft 108 kts 319°
2026-04-26 16:47 43.18717 -79.70646 1293 ft 184 kts 46°
2026-04-26 16:47 43.19316 -79.70071 1815 ft 167 kts 234°
2026-04-26 16:47 43.18192 -79.70453 741 ft 167 kts 193°
2026-04-26 16:48 43.17255 -79.70827 657 ft 121 kts 196°
2026-04-26 16:48 43.16549 -79.71132 1336 ft 184 kts 202°
2026-04-26 16:48 43.15431 -79.71698 1395 ft 168 kts 164°
2026-04-26 16:48 43.16071 -79.71280 868 ft 143 kts
2026-04-26 16:49 43.16958 -79.70955 661 ft 110 kts 15°
2026-04-26 16:49 43.17290 -79.70806 647 ft 0 kts 227°
2026-04-26 16:50 43.17289 -79.70806 647 ft 1 kts 228°
2026-04-26 16:52 43.17192 -79.70830 652 ft 79 kts 191°
2026-04-26 16:52 43.16435 -79.71253 1113 ft 139 kts 207°
2026-04-26 16:53 43.15866 -79.71425 1720 ft 66 kts 36°
2026-04-26 16:53 43.15860 -79.70736 1307 ft 128 kts 170°
2026-04-26 16:53 43.15096 -79.70446 700 ft 194 kts 124°
2026-04-26 16:53 43.15912 -79.69129 872 ft 198 kts 43°
2026-04-26 16:54 43.16712 -79.68697 1076 ft 149 kts 339°
2026-04-26 16:54 43.17329 -79.69038 1315 ft 184 kts 113°
2026-04-26 16:54 43.16966 -79.67385 749 ft 192 kts 104°
2026-04-26 16:54 43.16804 -79.65866 730 ft 175 kts 102°
2026-04-26 16:55 43.16298 -79.64096 734 ft 135 kts 100°
2026-04-26 16:55 43.16033 -79.63306 812 ft 120 kts 130°
2026-04-26 16:55 43.15713 -79.62559 1176 ft 114 kts 66°
2026-04-26 16:55 43.15254 -79.61475 931 ft 92 kts 104°
2026-04-26 16:56 43.15550 -79.60303 658 ft 66 kts 52°
2026-04-26 16:56 43.15813 -79.60041 627 ft 13 kts 32°